Time,TemperatureF,DewpointF,PressureIn,WindDirection,WindDirectionDegrees,WindSpeedMPH,WindSpeedGustMPH,Humidity,HourlyPrecipIn,Conditions,Clouds,dailyrainin,SoftwareType,DateUTC
2013-03-05 00:01:00,23.4,20.6,30.12,SE,143,0.0,0.0,89,0.00,,,0.01,Wunderground v.1.15,2013-03-05 05:01:00,
2013-03-05 00:05:00,23.4,20.6,30.12,SE,143,0.0,0.0,89,0.00,,,0.00,Wunderground v.1.15,2013-03-05 05:05:00,
2013-03-05 00:09:00,23.5,20.7,30.12,SE,143,0.0,0.0,89,0.00,,,0.00,Wunderground v.1.15,2013-03-05 05:09:00,
2013-03-05 00:14:00,23.5,20.7,30.12,SE,143,0.0,0.0,89,0.00,,,0.00,Wunderground v.1.15,2013-03-05 05:14:00,
2013-03-05 00:20:00,23.5,20.7,30.13,SE,143,0.0,0.0,89,0.00,,,0.00,Wunderground v.1.15,2013-03-05 05:20:00,
2013-03-05 00:25:00,23.4,20.4,30.13,SE,143,0.0,0.0,88,0.00,,,0.00,Wunderground v.1.15,2013-03-05 05:25:00,
2013-03-05 00:30:00,23.3,20.5,30.13,SE,143,0.0,0.0,89,0.00,,,0.00,Wunderground v.1.15,2013-03-05 05:30:00,
2013-03-05 00:35:00,23.2,20.4,30.13,SE,143,0.0,0.0,89,0.00,,,0.00,Wunderground v.1.15,2013-03-05 05:35:00,
2013-03-05 00:41:00,23.1,20.3,30.13,SE,143,0.0,0.0,89,0.00,,,0.00,Wunderground v.1.15,2013-03-05 05:41:00,
2013-03-05 00:47:00,23.0,20.2,30.13,SE,143,0.0,0.0,89,0.00,,,0.00,Wunderground v.1.15,2013-03-05 05:47:00,
2013-03-05 00:52:00,22.9,20.1,30.13,SE,143,0.0,0.0,89,0.00,,,0.00,Wunderground v.1.15,2013-03-05 05:52:00,
2013-03-05 00:57:00,22.7,19.9,30.13,SE,143,0.0,0.0,89,0.00,,,0.00,Wunderground v.1.15,2013-03-05 05:57:00,
2013-03-05 01:02:00,22.6,19.8,30.14,SE,143,0.0,0.0,89,0.00,,,0.00,Wunderground v.1.15,2013-03-05 06:02:00,
2013-03-05 01:08:00,22.5,19.7,30.14,SE,143,0.0,0.0,89,0.00,,,0.00,Wunderground v.1.15,2013-03-05 06:08:00,
2013-03-05 01:13:00,22.5,19.7,30.14,SE,143,0.0,0.0,89,0.00,,,0.00,Wunderground v.1.15,2013-03-05 06:13:00,
2013-03-05 01:18:00,22.4,19.6,30.14,SE,143,0.0,0.0,89,0.00,,,0.00,Wunderground v.1.15,2013-03-05 06:18:00,
2013-03-05 01:23:00,22.4,19.6,30.14,SE,143,0.0,0.0,89,0.00,,,0.00,Wunderground v.1.15,2013-03-05 06:23:00,
2013-03-05 01:28:00,22.2,19.5,30.14,SE,143,0.0,0.0,89,0.00,,,0.00,Wunderground v.1.15,2013-03-05 06:28:00,
2013-03-05 01:34:00,22.1,19.4,30.14,SE,143,0.0,0.0,89,0.00,,,0.00,Wunderground v.1.15,2013-03-05 06:34:00,
2013-03-05 01:39:00,21.9,19.2,30.14,SE,143,0.0,0.0,89,0.00,,,0.00,Wunderground v.1.15,2013-03-05 06:39:00,
2013-03-05 01:44:00,21.8,19.1,30.14,SE,143,0.0,0.0,89,0.00,,,0.00,Wunderground v.1.15,2013-03-05 06:44:00,
2013-03-05 01:50:00,21.6,18.9,30.14,SE,143,0.0,0.0,89,0.00,,,0.00,Wunderground v.1.15,2013-03-05 06:50:00,
2013-03-05 01:55:00,21.5,18.8,30.14,SE,143,0.0,0.0,89,0.00,,,0.00,Wunderground v.1.15,2013-03-05 06:55:00,
2013-03-05 02:00:00,21.4,18.7,30.14,SE,143,0.0,0.0,89,0.00,,,0.00,Wunderground v.1.15,2013-03-05 07:00:00,
2013-03-05 02:06:00,21.2,18.5,30.14,SE,143,0.0,0.0,89,0.00,,,0.00,Wunderground v.1.15,2013-03-05 07:06:00,
2013-03-05 02:11:00,21.0,18.5,30.14,SE,143,0.0,0.0,90,0.00,,,0.00,Wunderground v.1.15,2013-03-05 07:11:00,
2013-03-05 02:16:00,20.9,18.4,30.14,SE,143,0.0,0.0,90,0.00,,,0.00,Wunderground v.1.15,2013-03-05 07:16:00,
2013-03-05 02:22:00,20.9,18.7,30.14,SE,143,0.0,0.0,91,0.00,,,0.00,Wunderground v.1.15,2013-03-05 07:22:00,
2013-03-05 02:27:00,20.9,18.7,30.14,SE,143,0.0,0.0,91,0.00,,,0.00,Wunderground v.1.15,2013-03-05 07:27:00,
2013-03-05 02:32:00,20.8,18.6,30.14,SE,143,0.0,0.0,91,0.00,,,0.00,Wunderground v.1.15,2013-03-05 07:32:00,
2013-03-05 02:38:00,20.7,18.5,30.14,SE,143,0.0,0.0,91,0.00,,,0.00,Wunderground v.1.15,2013-03-05 07:38:00,
2013-03-05 02:43:00,20.6,18.4,30.14,SE,143,0.0,0.0,91,0.00,,,0.00,Wunderground v.1.15,2013-03-05 07:43:00,
2013-03-05 02:48:00,20.5,18.0,30.13,SE,143,0.0,0.0,90,0.00,,,0.00,Wunderground v.1.15,2013-03-05 07:48:00,
2013-03-05 02:53:00,20.3,17.8,30.14,SE,143,0.0,0.0,90,0.00,,,0.00,Wunderground v.1.15,2013-03-05 07:53:00,
2013-03-05 02:59:00,20.3,18.1,30.14,SE,143,0.0,0.0,91,0.00,,,0.00,Wunderground v.1.15,2013-03-05 07:59:00,
2013-03-05 03:04:00,20.3,18.1,30.13,SE,143,0.0,0.0,91,0.00,,,0.00,Wunderground v.1.15,2013-03-05 08:04:00,
2013-03-05 03:10:00,20.2,18.0,30.13,SE,143,0.0,0.0,91,0.00,,,0.00,Wunderground v.1.15,2013-03-05 08:10:00,
2013-03-05 03:15:00,20.2,18.0,30.13,SE,143,0.0,0.0,91,0.00,,,0.00,Wunderground v.1.15,2013-03-05 08:15:00,
2013-03-05 03:20:00,20.1,17.9,30.13,SE,143,0.0,0.0,91,0.00,,,0.00,Wunderground v.1.15,2013-03-05 08:20:00,
2013-03-05 03:25:00,20.0,17.8,30.13,SE,143,0.0,0.0,91,0.00,,,0.00,Wunderground v.1.15,2013-03-05 08:25:00,
2013-03-05 03:31:00,19.9,17.7,30.13,SE,143,0.0,0.0,91,0.00,,,0.00,Wunderground v.1.15,2013-03-05 08:31:00,
2013-03-05 03:37:00,19.9,17.7,30.13,SE,143,0.0,0.0,91,0.00,,,0.00,Wunderground v.1.15,2013-03-05 08:37:00,
2013-03-05 03:42:00,19.8,17.6,30.13,SE,143,0.0,0.0,91,0.00,,,0.00,Wunderground v.1.15,2013-03-05 08:42:00,
2013-03-05 03:47:00,19.7,17.5,30.12,SE,143,0.0,0.0,91,0.00,,,0.00,Wunderground v.1.15,2013-03-05 08:47:00,
2013-03-05 03:53:00,19.7,17.5,30.12,SE,143,0.0,0.0,91,0.00,,,0.00,Wunderground v.1.15,2013-03-05 08:53:00,
2013-03-05 03:58:00,19.6,17.4,30.13,SE,143,0.0,0.0,91,0.00,,,0.00,Wunderground v.1.15,2013-03-05 08:58:00,
2013-03-05 04:03:00,19.6,17.4,30.13,SE,143,0.0,0.0,91,0.00,,,0.00,Wunderground v.1.15,2013-03-05 09:03:00,
2013-03-05 04:09:00,19.5,17.3,30.13,SE,143,0.0,0.0,91,0.00,,,0.00,Wunderground v.1.15,2013-03-05 09:09:00,
2013-03-05 04:14:00,19.4,17.2,30.12,SE,143,0.0,0.0,91,0.00,,,0.00,Wunderground v.1.15,2013-03-05 09:14:00,
2013-03-05 04:19:00,19.3,17.1,30.13,SE,143,0.0,0.0,91,0.00,,,0.00,Wunderground v.1.15,2013-03-05 09:19:00,
2013-03-05 04:25:00,19.3,17.1,30.12,SE,143,0.0,0.0,91,0.00,,,0.00,Wunderground v.1.15,2013-03-05 09:25:00,
2013-03-05 04:30:00,19.2,17.0,30.12,SE,143,0.0,0.0,91,0.00,,,0.00,Wunderground v.1.15,2013-03-05 09:30:00,
2013-03-05 04:35:00,19.2,17.0,30.13,SE,143,0.0,0.0,91,0.00,,,0.00,Wunderground v.1.15,2013-03-05 09:35:00,
2013-03-05 04:41:00,19.1,16.9,30.13,SE,143,0.0,0.0,91,0.00,,,0.00,Wunderground v.1.15,2013-03-05 09:41:00,
2013-03-05 04:46:00,19.1,17.2,30.13,SE,143,0.0,0.0,92,0.00,,,0.00,Wunderground v.1.15,2013-03-05 09:46:00,
2013-03-05 04:52:00,19.1,17.2,30.13,SE,143,0.0,0.0,92,0.00,,,0.00,Wunderground v.1.15,2013-03-05 09:52:00,
2013-03-05 04:57:00,19.0,17.1,30.13,SE,143,0.0,0.0,92,0.00,,,0.00,Wunderground v.1.15,2013-03-05 09:57:00,
2013-03-05 05:02:00,19.0,16.8,30.13,SE,143,0.0,0.0,91,0.00,,,0.00,Wunderground v.1.15,2013-03-05 10:02:00,
2013-03-05 05:08:00,18.8,16.6,30.13,SE,143,0.0,0.0,91,0.00,,,0.00,Wunderground v.1.15,2013-03-05 10:08:00,
2013-03-05 05:13:00,18.7,16.5,30.13,SE,143,0.0,0.0,91,0.00,,,0.00,Wunderground v.1.15,2013-03-05 10:13:00,
2013-03-05 05:18:00,18.6,16.4,30.13,SE,143,0.0,0.0,91,0.00,,,0.00,Wunderground v.1.15,2013-03-05 10:18:00,
2013-03-05 05:23:00,18.5,16.3,30.13,SE,143,0.0,0.0,91,0.00,,,0.00,Wunderground v.1.15,2013-03-05 10:23:00,
2013-03-05 05:29:00,18.5,16.3,30.13,SE,143,0.0,0.0,91,0.00,,,0.00,Wunderground v.1.15,2013-03-05 10:29:00,
2013-03-05 05:34:00,18.5,16.3,30.13,SE,143,0.0,0.0,91,0.00,,,0.00,Wunderground v.1.15,2013-03-05 10:34:00,
2013-03-05 05:39:00,18.6,16.7,30.13,SE,143,0.0,0.0,92,0.00,,,0.00,Wunderground v.1.15,2013-03-05 10:39:00,
2013-03-05 05:45:00,19.0,17.1,30.13,SE,143,0.0,0.0,92,0.00,,,0.00,Wunderground v.1.15,2013-03-05 10:45:00,
2013-03-05 05:50:00,19.5,17.3,30.13,ENE,66,0.0,0.0,91,0.00,,,0.00,Wunderground v.1.15,2013-03-05 10:50:00,
2013-03-05 05:56:00,20.1,17.6,30.13,ESE,111,0.0,0.0,90,0.00,,,0.00,Wunderground v.1.15,2013-03-05 10:56:00,
2013-03-05 06:02:00,20.4,17.4,30.13,ESE,111,0.0,0.0,88,0.00,,,0.00,Wunderground v.1.15,2013-03-05 11:02:00,
2013-03-05 06:07:00,20.6,17.3,30.13,NNW,348,0.0,1.0,87,0.00,,,0.00,Wunderground v.1.15,2013-03-05 11:07:00,
2013-03-05 06:12:00,20.7,17.4,30.13,SE,126,0.0,1.0,87,0.00,,,0.00,Wunderground v.1.15,2013-03-05 11:12:00,
2013-03-05 06:17:00,20.8,17.3,30.13,NNE,24,0.0,1.0,86,0.00,,,0.00,Wunderground v.1.15,2013-03-05 11:17:00,
2013-03-05 06:23:00,20.9,17.4,30.13,NNE,24,0.0,0.0,86,0.00,,,0.00,Wunderground v.1.15,2013-03-05 11:23:00,
2013-03-05 06:28:00,20.8,17.3,30.12,NNE,24,0.0,0.0,86,0.00,,,0.00,Wunderground v.1.15,2013-03-05 11:28:00,
2013-03-05 06:33:00,20.7,17.2,30.12,NNE,24,0.0,0.0,86,0.00,,,0.00,Wunderground v.1.15,2013-03-05 11:33:00,
2013-03-05 06:38:00,20.7,17.2,30.12,East,84,0.0,0.0,86,0.00,,,0.00,Wunderground v.1.15,2013-03-05 11:38:00,
2013-03-05 06:44:00,20.5,17.0,30.12,East,84,0.0,0.0,86,0.00,,,0.00,Wunderground v.1.15,2013-03-05 11:44:00,
2013-03-05 06:49:00,20.5,17.0,30.12,East,84,0.0,0.0,86,0.00,,,0.00,Wunderground v.1.15,2013-03-05 11:49:00,
2013-03-05 06:54:00,20.4,16.9,30.12,East,84,0.0,0.0,86,0.00,,,0.00,Wunderground v.1.15,2013-03-05 11:54:00,
2013-03-05 07:00:00,20.3,16.8,30.12,East,84,0.0,0.0,86,0.00,,,0.00,Wunderground v.1.15,2013-03-05 12:00:00,
2013-03-05 07:06:00,20.3,17.0,30.12,East,84,0.0,0.0,87,0.00,,,0.00,Wunderground v.1.15,2013-03-05 12:06:00,
2013-03-05 07:11:00,20.4,17.1,30.12,East,84,0.0,0.0,87,0.00,,,0.00,Wunderground v.1.15,2013-03-05 12:11:00,
2013-03-05 07:16:00,20.5,17.2,30.12,East,84,0.0,0.0,87,0.00,,,0.00,Wunderground v.1.15,2013-03-05 12:16:00,
2013-03-05 07:22:00,20.6,17.3,30.12,East,84,0.0,0.0,87,0.00,,,0.00,Wunderground v.1.15,2013-03-05 12:22:00,
2013-03-05 07:27:00,20.9,17.6,30.12,East,84,0.0,0.0,87,0.00,,,0.00,Wunderground v.1.15,2013-03-05 12:27:00,
2013-03-05 07:32:00,21.5,18.2,30.12,East,84,0.0,0.0,87,0.00,,,0.00,Wunderground v.1.15,2013-03-05 12:32:00,
2013-03-05 07:37:00,22.0,18.2,30.12,East,84,0.0,0.0,85,0.00,,,0.00,Wunderground v.1.15,2013-03-05 12:37:00,
2013-03-05 07:43:00,22.7,18.9,30.12,East,84,0.0,0.0,85,0.00,,,0.00,Wunderground v.1.15,2013-03-05 12:43:00,
2013-03-05 07:48:00,23.4,19.3,30.12,SSE,163,0.0,2.0,84,0.00,,,0.00,Wunderground v.1.15,2013-03-05 12:48:00,
2013-03-05 07:53:00,23.9,19.5,30.12,ESE,115,0.0,0.0,83,0.00,,,0.00,Wunderground v.1.15,2013-03-05 12:53:00,
2013-03-05 07:59:00,24.6,19.9,30.11,ESE,115,0.0,1.0,82,0.00,,,0.00,Wunderground v.1.15,2013-03-05 12:59:00,
2013-03-05 08:04:00,25.0,20.0,30.11,East,98,0.0,1.0,81,0.00,,,0.00,Wunderground v.1.15,2013-03-05 13:04:00,
2013-03-05 08:10:00,25.4,20.4,30.11,ESE,117,1.0,1.0,81,0.00,,,0.00,Wunderground v.1.15,2013-03-05 13:10:00,
2013-03-05 08:15:00,25.8,20.2,30.11,ESE,116,1.0,1.0,79,0.00,,,0.00,Wunderground v.1.15,2013-03-05 13:15:00,
2013-03-05 08:20:00,26.2,20.6,30.11,ESE,121,0.0,0.0,79,0.00,,,0.00,Wunderground v.1.15,2013-03-05 13:20:00,
2013-03-05 08:26:00,26.5,20.0,30.11,SSE,156,1.0,2.0,76,0.00,,,0.00,Wunderground v.1.15,2013-03-05 13:26:00,
2013-03-05 08:31:00,26.6,20.4,30.11,ESE,119,1.0,1.0,77,0.00,,,0.00,Wunderground v.1.15,2013-03-05 13:31:00,
2013-03-05 08:36:00,26.9,20.7,30.11,ESE,119,1.0,1.0,77,0.00,,,0.00,Wunderground v.1.15,2013-03-05 13:36:00,
2013-03-05 08:41:00,27.3,20.7,30.11,SE,140,1.0,2.0,76,0.00,,,0.00,Wunderground v.1.15,2013-03-05 13:41:00,
2013-03-05 08:47:00,27.6,20.7,30.10,SE,140,0.0,2.0,75,0.00,,,0.00,Wunderground v.1.15,2013-03-05 13:47:00,
2013-03-05 08:52:00,28.0,20.8,30.10,SE,131,1.0,1.0,74,0.00,,,0.00,Wunderground v.1.15,2013-03-05 13:52:00,
2013-03-05 08:57:00,28.5,21.3,30.10,SE,133,1.0,3.0,74,0.00,,,0.00,Wunderground v.1.15,2013-03-05 13:57:00,
2013-03-05 09:03:00,28.7,21.1,30.10,SE,129,1.0,1.0,73,0.00,,,0.00,Wunderground v.1.15,2013-03-05 14:03:00,
2013-03-05 09:08:00,29.1,21.5,30.10,ESE,104,1.0,1.0,73,0.00,,,0.00,Wunderground v.1.15,2013-03-05 14:08:00,
2013-03-05 09:14:00,29.7,22.1,30.10,ESE,109,1.0,2.0,73,0.00,,,0.00,Wunderground v.1.15,2013-03-05 14:14:00,
2013-03-05 09:19:00,30.1,21.8,30.10,ESE,111,1.0,2.0,71,0.00,,,0.00,Wunderground v.1.15,2013-03-05 14:19:00,
2013-03-05 09:24:00,30.2,21.6,30.10,ESE,109,0.0,1.0,70,0.00,,,0.00,Wunderground v.1.15,2013-03-05 14:24:00,
2013-03-05 09:30:00,30.3,21.0,30.10,SE,129,0.0,2.0,68,0.00,,,0.00,Wunderground v.1.15,2013-03-05 14:30:00,
2013-03-05 09:35:00,30.6,22.0,30.10,SE,129,1.0,2.0,70,0.00,,,0.00,Wunderground v.1.15,2013-03-05 14:35:00,
2013-03-05 09:40:00,30.6,21.3,30.10,ENE,76,1.0,1.0,68,0.00,,,0.00,Wunderground v.1.15,2013-03-05 14:40:00,
2013-03-05 09:45:00,30.8,21.8,30.10,ESE,107,1.0,1.0,69,0.00,,,0.00,Wunderground v.1.15,2013-03-05 14:45:00,
2013-03-05 09:51:00,31.4,21.0,30.10,ESE,107,0.0,0.0,65,0.00,,,0.00,Wunderground v.1.15,2013-03-05 14:51:00,
2013-03-05 09:57:00,31.5,21.8,30.09,SE,129,1.0,3.0,67,0.00,,,0.00,Wunderground v.1.15,2013-03-05 14:57:00,
2013-03-05 10:02:00,31.9,21.5,30.09,ESE,123,1.0,1.0,65,0.00,,,0.00,Wunderground v.1.15,2013-03-05 15:02:00,
2013-03-05 10:07:00,32.3,22.6,30.08,ENE,68,1.0,1.0,67,0.00,,,0.00,Wunderground v.1.15,2013-03-05 15:07:00,
2013-03-05 10:13:00,32.7,21.5,30.08,ENE,78,1.0,2.0,63,0.00,,,0.00,Wunderground v.1.15,2013-03-05 15:13:00,
2013-03-05 10:18:00,33.2,22.0,30.08,ENE,74,1.0,2.0,63,0.00,,,0.00,Wunderground v.1.15,2013-03-05 15:18:00,
2013-03-05 10:23:00,33.3,20.1,30.08,ESE,105,0.0,1.0,58,0.00,,,0.00,Wunderground v.1.15,2013-03-05 15:23:00,
2013-03-05 10:28:00,33.7,22.1,30.07,East,94,0.0,2.0,62,0.00,,,0.00,Wunderground v.1.15,2013-03-05 15:28:00,
2013-03-05 10:33:00,34.2,20.1,30.07,ESE,119,0.0,3.0,56,0.00,,,0.00,Wunderground v.1.15,2013-03-05 15:33:00,
2013-03-05 10:39:00,34.4,20.3,30.08,SE,124,1.0,3.0,56,0.00,,,0.00,Wunderground v.1.15,2013-03-05 15:39:00,
2013-03-05 10:44:00,34.4,19.5,30.07,SE,134,1.0,1.0,54,0.00,,,0.00,Wunderground v.1.15,2013-03-05 15:44:00,
2013-03-05 10:49:00,34.4,20.3,30.08,SSE,153,1.0,1.0,56,0.00,,,0.00,Wunderground v.1.15,2013-03-05 15:49:00,
2013-03-05 10:54:00,34.6,19.2,30.08,SE,135,1.0,2.0,53,0.00,,,0.00,Wunderground v.1.15,2013-03-05 15:54:00,
2013-03-05 11:00:00,35.0,21.7,30.07,SE,135,0.0,0.0,58,0.00,,,0.00,Wunderground v.1.15,2013-03-05 16:00:00,
2013-03-05 11:06:00,35.7,20.7,30.07,East,97,0.0,1.0,54,0.00,,,0.00,Wunderground v.1.15,2013-03-05 16:06:00,
2013-03-05 11:11:00,36.0,20.1,30.06,ESE,123,0.0,1.0,52,0.00,,,0.00,Wunderground v.1.15,2013-03-05 16:11:00,
2013-03-05 11:16:00,36.1,21.0,30.07,ENE,76,1.0,3.0,54,0.00,,,0.00,Wunderground v.1.15,2013-03-05 16:16:00,
2013-03-05 11:22:00,36.2,20.2,30.07,ESE,108,1.0,1.0,52,0.00,,,0.00,Wunderground v.1.15,2013-03-05 16:22:00,
2013-03-05 11:27:00,36.2,20.7,30.06,ESE,102,0.0,1.0,53,0.00,,,0.00,Wunderground v.1.15,2013-03-05 16:27:00,
2013-03-05 11:32:00,36.7,21.2,30.06,East,92,0.0,2.0,53,0.00,,,0.00,Wunderground v.1.15,2013-03-05 16:32:00,
2013-03-05 11:38:00,37.0,21.0,30.06,ESE,119,0.0,2.0,52,0.00,,,0.00,Wunderground v.1.15,2013-03-05 16:38:00,
2013-03-05 11:43:00,37.3,19.4,30.06,ENE,69,0.0,1.0,48,0.00,,,0.00,Wunderground v.1.15,2013-03-05 16:43:00,
2013-03-05 11:48:00,37.6,20.6,30.05,ESE,117,0.0,1.0,50,0.00,,,0.00,Wunderground v.1.15,2013-03-05 16:48:00,
2013-03-05 11:53:00,37.8,21.7,30.05,SE,128,0.0,3.0,52,0.00,,,0.00,Wunderground v.1.15,2013-03-05 16:53:00,
2013-03-05 11:59:00,38.0,20.0,30.05,SE,125,1.0,3.0,48,0.00,,,0.00,Wunderground v.1.15,2013-03-05 16:59:00,
2013-03-05 12:04:00,38.0,21.5,30.04,NNE,28,0.0,2.0,51,0.00,,,0.00,Wunderground v.1.15,2013-03-05 17:04:00,
2013-03-05 12:09:00,38.3,22.2,30.04,East,97,0.0,2.0,52,0.00,,,0.00,Wunderground v.1.15,2013-03-05 17:09:00,
2013-03-05 12:15:00,38.9,21.3,30.03,East,101,0.0,3.0,49,0.00,,,0.00,Wunderground v.1.15,2013-03-05 17:15:00,
2013-03-05 12:20:00,39.1,22.0,30.03,NNE,14,0.0,0.0,50,0.00,,,0.00,Wunderground v.1.15,2013-03-05 17:20:00,
2013-03-05 12:25:00,39.5,23.3,30.02,East,99,1.0,3.0,52,0.00,,,0.00,Wunderground v.1.15,2013-03-05 17:25:00,
2013-03-05 12:31:00,40.0,21.9,30.02,ESE,117,1.0,3.0,48,0.00,,,0.00,Wunderground v.1.15,2013-03-05 17:31:00,
2013-03-05 12:37:00,40.2,22.1,30.01,NE,42,1.0,4.0,48,0.00,,,0.00,Wunderground v.1.15,2013-03-05 17:37:00,
2013-03-05 12:42:00,40.5,20.3,30.01,East,82,2.0,3.0,44,0.00,,,0.00,Wunderground v.1.15,2013-03-05 17:42:00,
2013-03-05 12:47:00,40.9,21.7,30.00,East,88,2.0,3.0,46,0.00,,,0.00,Wunderground v.1.15,2013-03-05 17:47:00,
2013-03-05 12:52:00,41.3,20.5,30.00,East,81,1.0,2.0,43,0.00,,,0.00,Wunderground v.1.15,2013-03-05 17:52:00,
2013-03-05 12:58:00,41.6,20.2,29.99,ESE,111,1.0,2.0,42,0.00,,,0.00,Wunderground v.1.15,2013-03-05 17:58:00,
2013-03-05 13:03:00,41.9,21.0,29.99,East,98,1.0,1.0,43,0.00,,,0.00,Wunderground v.1.15,2013-03-05 18:03:00,
2013-03-05 13:08:00,42.1,20.6,29.99,ESE,120,1.0,2.0,42,0.00,,,0.00,Wunderground v.1.15,2013-03-05 18:08:00,
2013-03-05 13:14:00,42.3,19.1,29.98,East,84,1.0,1.0,39,0.00,,,0.00,Wunderground v.1.15,2013-03-05 18:14:00,
2013-03-05 13:19:00,42.6,20.5,29.98,ESE,115,0.0,2.0,41,0.00,,,0.00,Wunderground v.1.15,2013-03-05 18:19:00,
2013-03-05 13:25:00,43.1,19.2,29.97,NNE,26,1.0,4.0,38,0.00,,,0.00,Wunderground v.1.15,2013-03-05 18:25:00,
2013-03-05 13:30:00,43.4,19.5,29.97,ESE,114,1.0,7.0,38,0.00,,,0.00,Wunderground v.1.15,2013-03-05 18:30:00,
2013-03-05 13:35:00,43.4,18.2,29.96,NNE,26,2.0,7.0,36,0.00,,,0.00,Wunderground v.1.15,2013-03-05 18:35:00,
2013-03-05 13:41:00,43.6,19.0,29.96,ESE,104,1.0,1.0,37,0.00,,,0.00,Wunderground v.1.15,2013-03-05 18:41:00,
2013-03-05 13:46:00,44.0,18.1,29.95,ESE,121,1.0,3.0,35,0.00,,,0.00,Wunderground v.1.15,2013-03-05 18:46:00,
2013-03-05 13:52:00,44.3,19.6,29.95,East,92,1.0,1.0,37,0.00,,,0.00,Wunderground v.1.15,2013-03-05 18:52:00,
2013-03-05 13:57:00,44.4,19.7,29.95,SE,128,1.0,4.0,37,0.00,,,0.00,Wunderground v.1.15,2013-03-05 18:57:00,
2013-03-05 14:04:00,44.5,18.5,29.94,East,101,1.0,2.0,35,0.00,,,0.00,Wunderground v.1.15,2013-03-05 19:04:00,
2013-03-05 14:09:00,44.4,18.4,29.94,East,99,1.0,2.0,35,0.00,,,0.00,Wunderground v.1.15,2013-03-05 19:09:00,
2013-03-05 14:14:00,44.4,17.1,29.93,ESE,105,1.0,3.0,33,0.00,,,0.00,Wunderground v.1.15,2013-03-05 19:14:00,
2013-03-05 14:20:00,44.5,16.4,29.93,WNW,296,1.0,2.0,32,0.00,,,0.00,Wunderground v.1.15,2013-03-05 19:20:00,
2013-03-05 14:25:00,44.3,15.5,29.93,SE,124,2.0,4.0,31,0.00,,,0.00,Wunderground v.1.15,2013-03-05 19:25:00,
2013-03-05 14:30:00,44.3,17.0,29.93,ESE,108,1.0,2.0,33,0.00,,,0.00,Wunderground v.1.15,2013-03-05 19:30:00,
2013-03-05 14:36:00,44.3,17.0,29.92,North,360,2.0,4.0,33,0.00,,,0.00,Wunderground v.1.15,2013-03-05 19:36:00,
2013-03-05 14:42:00,44.2,16.9,29.92,SE,146,1.0,5.0,33,0.00,,,0.00,Wunderground v.1.15,2013-03-05 19:42:00,
2013-03-05 14:47:00,44.3,17.0,29.91,SE,143,1.0,5.0,33,0.00,,,0.00,Wunderground v.1.15,2013-03-05 19:47:00,
2013-03-05 14:52:00,44.4,17.1,29.90,SSE,147,1.0,4.0,33,0.00,,,0.00,Wunderground v.1.15,2013-03-05 19:52:00,
2013-03-05 14:57:00,44.5,17.8,29.90,West,269,1.0,4.0,34,0.00,,,0.00,Wunderground v.1.15,2013-03-05 19:57:00,
2013-03-05 15:03:00,44.7,17.3,29.90,SE,134,1.0,4.0,33,0.00,,,0.00,Wunderground v.1.15,2013-03-05 20:03:00,
2013-03-05 15:08:00,44.5,15.7,29.90,ESE,105,2.0,4.0,31,0.00,,,0.00,Wunderground v.1.15,2013-03-05 20:08:00,
2013-03-05 15:13:00,44.6,17.2,29.89,NE,40,1.0,4.0,33,0.00,,,0.00,Wunderground v.1.15,2013-03-05 20:13:00,
2013-03-05 15:19:00,44.9,15.3,29.89,East,101,1.0,4.0,30,0.00,,,0.00,Wunderground v.1.15,2013-03-05 20:19:00,
2013-03-05 15:24:00,44.9,13.7,29.89,ESE,103,1.0,5.0,28,0.00,,,0.00,Wunderground v.1.15,2013-03-05 20:24:00,
2013-03-05 15:29:00,44.9,15.3,29.89,South,171,1.0,5.0,30,0.00,,,0.00,Wunderground v.1.15,2013-03-05 20:29:00,
2013-03-05 15:35:00,45.0,15.4,29.88,South,178,1.0,5.0,30,0.00,,,0.00,Wunderground v.1.15,2013-03-05 20:35:00,
2013-03-05 15:41:00,45.0,16.1,29.88,ESE,120,2.0,2.0,31,0.00,,,0.00,Wunderground v.1.15,2013-03-05 20:41:00,
2013-03-05 15:46:00,44.9,16.0,29.88,East,98,2.0,4.0,31,0.00,,,0.00,Wunderground v.1.15,2013-03-05 20:46:00,
2013-03-05 15:52:00,45.0,14.6,29.88,ESE,109,1.0,2.0,29,0.00,,,0.00,Wunderground v.1.15,2013-03-05 20:52:00,
2013-03-05 15:57:00,45.1,13.9,29.88,ESE,103,1.0,3.0,28,0.00,,,0.00,Wunderground v.1.15,2013-03-05 20:57:00,
2013-03-05 16:02:00,45.1,13.9,29.87,NE,36,1.0,3.0,28,0.00,,,0.00,Wunderground v.1.15,2013-03-05 21:02:00,
2013-03-05 16:07:00,45.0,16.1,29.87,ESE,111,1.0,3.0,31,0.00,,,0.00,Wunderground v.1.15,2013-03-05 21:07:00,
2013-03-05 16:13:00,44.9,15.3,29.87,ESE,106,2.0,2.0,30,0.00,,,0.00,Wunderground v.1.15,2013-03-05 21:13:00,
2013-03-05 16:18:00,44.9,15.3,29.87,NE,36,2.0,5.0,30,0.00,,,0.00,Wunderground v.1.15,2013-03-05 21:18:00,
2013-03-05 16:23:00,45.0,15.4,29.87,SE,124,1.0,2.0,30,0.00,,,0.00,Wunderground v.1.15,2013-03-05 21:23:00,
2013-03-05 16:28:00,45.1,15.5,29.87,East,94,1.0,2.0,30,0.00,,,0.00,Wunderground v.1.15,2013-03-05 21:28:00,
2013-03-05 16:34:00,45.1,16.2,29.87,NNE,31,1.0,3.0,31,0.00,,,0.00,Wunderground v.1.15,2013-03-05 21:34:00,
2013-03-05 16:39:00,45.2,16.3,29.87,ESE,106,1.0,3.0,31,0.00,,,0.00,Wunderground v.1.15,2013-03-05 21:39:00,
2013-03-05 16:44:00,45.2,17.0,29.86,NE,53,1.0,1.0,32,0.00,,,0.00,Wunderground v.1.15,2013-03-05 21:44:00,
2013-03-05 16:50:00,45.2,18.5,29.86,SSE,153,0.0,2.0,34,0.00,,,0.00,Wunderground v.1.15,2013-03-05 21:50:00,
2013-03-05 16:55:00,45.2,17.0,29.86,NNE,23,1.0,2.0,32,0.00,,,0.00,Wunderground v.1.15,2013-03-05 21:55:00,
2013-03-05 17:00:00,45.2,18.5,29.85,SE,126,0.0,2.0,34,0.00,,,0.00,Wunderground v.1.15,2013-03-05 22:00:00,
2013-03-05 17:06:00,45.2,17.0,29.85,ESE,123,0.0,3.0,32,0.00,,,0.00,Wunderground v.1.15,2013-03-05 22:06:00,
2013-03-05 17:11:00,45.2,17.0,29.85,SSE,155,1.0,1.0,32,0.00,,,0.00,Wunderground v.1.15,2013-03-05 22:11:00,
2013-03-05 17:17:00,45.2,17.0,29.84,ESE,117,1.0,1.0,32,0.00,,,0.00,Wunderground v.1.15,2013-03-05 22:17:00,
2013-03-05 17:22:00,45.2,16.3,29.84,East,101,1.0,1.0,31,0.00,,,0.00,Wunderground v.1.15,2013-03-05 22:22:00,
2013-03-05 17:28:00,45.1,18.4,29.83,ESE,111,0.0,1.0,34,0.00,,,0.00,Wunderground v.1.15,2013-03-05 22:28:00,
2013-03-05 17:33:00,45.0,16.9,29.83,NE,44,0.0,1.0,32,0.00,,,0.00,Wunderground v.1.15,2013-03-05 22:33:00,
2013-03-05 17:38:00,44.7,17.3,29.83,East,80,0.0,2.0,33,0.00,,,0.00,Wunderground v.1.15,2013-03-05 22:38:00,
2013-03-05 17:43:00,44.5,17.8,29.83,ENE,67,1.0,1.0,34,0.00,,,0.00,Wunderground v.1.15,2013-03-05 22:43:00,
2013-03-05 17:48:00,44.2,17.6,29.83,ENE,71,0.0,1.0,34,0.00,,,0.00,Wunderground v.1.15,2013-03-05 22:48:00,
2013-03-05 17:54:00,43.9,18.0,29.82,East,92,1.0,2.0,35,0.00,,,0.00,Wunderground v.1.15,2013-03-05 22:54:00,
2013-03-05 17:59:00,43.6,18.4,29.82,SE,138,0.0,4.0,36,0.00,,,0.00,Wunderground v.1.15,2013-03-05 22:59:00,
2013-03-05 18:05:00,43.3,18.1,29.82,NE,41,1.0,5.0,36,0.00,,,0.00,Wunderground v.1.15,2013-03-05 23:05:00,
2013-03-05 18:10:00,43.1,17.9,29.81,East,91,1.0,1.0,36,0.00,,,0.00,Wunderground v.1.15,2013-03-05 23:10:00,
2013-03-05 18:15:00,42.8,18.3,29.80,ESE,114,1.0,2.0,37,0.00,,,0.00,Wunderground v.1.15,2013-03-05 23:15:00,
2013-03-05 18:20:00,42.5,18.0,29.80,East,90,0.0,0.0,37,0.00,,,0.00,Wunderground v.1.15,2013-03-05 23:20:00,
2013-03-05 18:25:00,42.3,17.2,29.82,ESE,113,0.0,1.0,36,0.00,,,0.00,Wunderground v.1.15,2013-03-05 23:25:00,
2013-03-05 18:31:00,42.2,17.1,29.82,SE,130,0.0,2.0,36,0.00,,,0.00,Wunderground v.1.15,2013-03-05 23:31:00,
2013-03-05 18:37:00,42.1,16.4,29.81,East,82,1.0,2.0,35,0.00,,,0.00,Wunderground v.1.15,2013-03-05 23:37:00,
2013-03-05 18:42:00,42.0,17.6,29.81,ESE,116,1.0,1.0,37,0.00,,,0.00,Wunderground v.1.15,2013-03-05 23:42:00,
2013-03-05 18:48:00,41.9,16.9,29.81,NNE,32,0.0,5.0,36,0.00,,,0.00,Wunderground v.1.15,2013-03-05 23:48:00,
2013-03-05 18:53:00,41.9,17.5,29.81,ENE,72,1.0,2.0,37,0.00,,,0.00,Wunderground v.1.15,2013-03-05 23:53:00,
2013-03-05 18:58:00,41.8,17.4,29.81,SE,138,1.0,2.0,37,0.00,,,0.00,Wunderground v.1.15,2013-03-05 23:58:00,
2013-03-05 19:04:00,41.7,17.9,29.81,ESE,115,0.0,2.0,38,0.00,,,0.00,Wunderground v.1.15,2013-03-06 00:04:00,
2013-03-05 19:09:00,41.6,18.4,29.80,NNE,18,0.0,3.0,39,0.00,,,0.00,Wunderground v.1.15,2013-03-06 00:09:00,
2013-03-05 19:14:00,41.5,18.4,29.80,East,101,0.0,2.0,39,0.00,,,0.00,Wunderground v.1.15,2013-03-06 00:14:00,
2013-03-05 19:19:00,41.5,18.9,29.80,ESE,113,0.0,2.0,40,0.00,,,0.00,Wunderground v.1.15,2013-03-06 00:19:00,
2013-03-05 19:25:00,41.4,18.9,29.80,East,90,0.0,2.0,40,0.00,,,0.00,Wunderground v.1.15,2013-03-06 00:25:00,
2013-03-05 19:30:00,41.4,18.9,29.79,East,86,1.0,1.0,40,0.00,,,0.00,Wunderground v.1.15,2013-03-06 00:30:00,
2013-03-05 19:35:00,41.4,19.4,29.79,ESE,117,1.0,1.0,41,0.00,,,0.00,Wunderground v.1.15,2013-03-06 00:35:00,
2013-03-05 19:41:00,41.4,18.9,29.79,East,90,1.0,1.0,40,0.00,,,0.00,Wunderground v.1.15,2013-03-06 00:41:00,
2013-03-05 19:46:00,41.4,18.9,29.79,East,82,1.0,2.0,40,0.00,,,0.00,Wunderground v.1.15,2013-03-06 00:46:00,
2013-03-05 19:52:00,41.3,18.2,29.79,ESE,118,1.0,1.0,39,0.00,,,0.00,Wunderground v.1.15,2013-03-06 00:52:00,
2013-03-05 19:57:00,41.3,18.8,29.79,NE,47,1.0,2.0,40,0.00,,,0.00,Wunderground v.1.15,2013-03-06 00:57:00,
2013-03-05 20:03:00,41.2,18.1,29.78,ENE,78,1.0,1.0,39,0.00,,,0.00,Wunderground v.1.15,2013-03-06 01:03:00,
2013-03-05 20:08:00,41.1,18.0,29.78,ESE,106,1.0,5.0,39,0.00,,,0.00,Wunderground v.1.15,2013-03-06 01:08:00,
2013-03-05 20:13:00,41.1,18.0,29.77,SE,136,1.0,5.0,39,0.00,,,0.00,Wunderground v.1.15,2013-03-06 01:13:00,
2013-03-05 20:19:00,41.0,17.9,29.77,East,80,2.0,5.0,39,0.00,,,0.00,Wunderground v.1.15,2013-03-06 01:19:00,
2013-03-05 20:24:00,40.9,18.4,29.76,ESE,113,1.0,2.0,40,0.00,,,0.00,Wunderground v.1.15,2013-03-06 01:24:00,
2013-03-05 20:29:00,40.8,18.3,29.76,SW,233,1.0,4.0,40,0.00,,,0.00,Wunderground v.1.15,2013-03-06 01:29:00,
2013-03-05 20:35:00,40.8,17.7,29.76,SE,146,1.0,3.0,39,0.00,,,0.00,Wunderground v.1.15,2013-03-06 01:35:00,
2013-03-05 20:40:00,40.7,18.2,29.76,ESE,104,1.0,2.0,40,0.00,,,0.00,Wunderground v.1.15,2013-03-06 01:40:00,
2013-03-05 20:46:00,40.6,18.1,29.75,SE,128,1.0,4.0,40,0.00,,,0.00,Wunderground v.1.15,2013-03-06 01:46:00,
2013-03-05 20:52:00,40.4,18.0,29.75,NNE,28,2.0,2.0,40,0.00,,,0.00,Wunderground v.1.15,2013-03-06 01:52:00,
2013-03-05 20:57:00,40.2,17.8,29.75,East,98,2.0,4.0,40,0.00,,,0.00,Wunderground v.1.15,2013-03-06 01:57:00,
2013-03-05 21:02:00,40.1,18.3,29.75,ESE,103,1.0,2.0,41,0.00,,,0.00,Wunderground v.1.15,2013-03-06 02:02:00,
2013-03-05 21:08:00,40.0,18.7,29.74,North,11,1.0,3.0,42,0.00,,,0.00,Wunderground v.1.15,2013-03-06 02:08:00,
2013-03-05 21:13:00,39.8,18.5,29.74,SE,131,1.0,2.0,42,0.00,,,0.00,Wunderground v.1.15,2013-03-06 02:13:00,
2013-03-05 21:18:00,39.7,18.5,29.74,ENE,62,1.0,2.0,42,0.00,,,0.00,Wunderground v.1.15,2013-03-06 02:18:00,
2013-03-05 21:24:00,39.6,18.9,29.74,SE,134,1.0,3.0,43,0.00,,,0.00,Wunderground v.1.15,2013-03-06 02:24:00,
2013-03-05 21:29:00,39.5,19.4,29.74,North,360,1.0,3.0,44,0.00,,,0.00,Wunderground v.1.15,2013-03-06 02:29:00,
2013-03-05 21:34:00,39.4,19.3,29.74,East,99,1.0,7.0,44,0.00,,,0.00,Wunderground v.1.15,2013-03-06 02:34:00,
2013-03-05 21:39:00,39.3,19.2,29.74,ESE,113,1.0,7.0,44,0.00,,,0.00,Wunderground v.1.15,2013-03-06 02:39:00,
2013-03-05 21:45:00,39.2,19.6,29.74,SE,138,1.0,3.0,45,0.00,,,0.00,Wunderground v.1.15,2013-03-06 02:45:00,
2013-03-05 21:50:00,39.2,19.6,29.74,SE,127,1.0,2.0,45,0.00,,,0.00,Wunderground v.1.15,2013-03-06 02:50:00,
2013-03-05 21:55:00,39.2,19.6,29.74,NE,35,1.0,2.0,45,0.00,,,0.00,Wunderground v.1.15,2013-03-06 02:55:00,
2013-03-05 22:00:00,39.2,19.6,29.74,NE,49,1.0,1.0,45,0.00,,,0.00,Wunderground v.1.15,2013-03-06 03:00:00,
2013-03-05 22:06:00,39.3,19.7,29.74,ESE,117,1.0,3.0,45,0.00,,,0.00,Wunderground v.1.15,2013-03-06 03:06:00,
2013-03-05 22:11:00,39.3,20.2,29.74,ENE,72,1.0,2.0,46,0.00,,,0.00,Wunderground v.1.15,2013-03-06 03:11:00,
2013-03-05 22:16:00,39.5,20.4,29.74,East,97,1.0,3.0,46,0.00,,,0.00,Wunderground v.1.15,2013-03-06 03:16:00,
2013-03-05 22:22:00,39.6,20.5,29.74,ESE,119,2.0,2.0,46,0.00,,,0.00,Wunderground v.1.15,2013-03-06 03:22:00,
2013-03-05 22:27:00,39.8,21.2,29.74,ESE,118,2.0,4.0,47,0.00,,,0.00,Wunderground v.1.15,2013-03-06 03:27:00,
2013-03-05 22:33:00,39.8,21.7,29.74,ESE,117,2.0,3.0,48,0.00,,,0.00,Wunderground v.1.15,2013-03-06 03:33:00,
2013-03-05 22:38:00,39.8,21.7,29.74,East,96,2.0,3.0,48,0.00,,,0.00,Wunderground v.1.15,2013-03-06 03:38:00,
2013-03-05 22:43:00,39.8,21.7,29.73,ESE,119,3.0,5.0,48,0.00,,,0.00,Wunderground v.1.15,2013-03-06 03:43:00,
2013-03-05 22:49:00,39.7,22.1,29.73,SE,136,2.0,5.0,49,0.00,,,0.00,Wunderground v.1.15,2013-03-06 03:49:00,
2013-03-05 22:54:00,39.7,22.6,29.73,NNW,327,2.0,8.0,50,0.00,,,0.00,Wunderground v.1.15,2013-03-06 03:54:00,
2013-03-05 22:59:00,39.7,22.1,29.73,ESE,123,2.0,8.0,49,0.00,,,0.00,Wunderground v.1.15,2013-03-06 03:59:00,
2013-03-05 23:05:00,39.7,22.1,29.73,WNW,302,2.0,4.0,49,0.00,,,0.00,Wunderground v.1.15,2013-03-06 04:05:00,
2013-03-05 23:10:00,39.7,22.1,29.73,NE,35,2.0,2.0,49,0.00,,,0.00,Wunderground v.1.15,2013-03-06 04:10:00,
2013-03-05 23:15:00,39.7,22.6,29.73,SE,134,2.0,3.0,50,0.00,,,0.00,Wunderground v.1.15,2013-03-06 04:15:00,
2013-03-05 23:21:00,39.6,22.5,29.73,East,98,2.0,2.0,50,0.00,,,0.00,Wunderground v.1.15,2013-03-06 04:21:00,
2013-03-05 23:26:00,39.6,22.9,29.73,SE,124,2.0,4.0,51,0.00,,,0.00,Wunderground v.1.15,2013-03-06 04:26:00,
2013-03-05 23:31:00,39.6,23.9,29.73,NE,48,3.0,5.0,53,0.00,,,0.00,Wunderground v.1.15,2013-03-06 04:31:00,
2013-03-05 23:36:00,39.3,24.0,29.73,SSW,194,4.0,9.0,54,0.00,,,0.00,Wunderground v.1.15,2013-03-06 04:36:00,
2013-03-05 23:41:00,38.9,24.5,29.73,NNW,340,4.0,6.0,56,0.00,,,0.00,Wunderground v.1.15,2013-03-06 04:41:00,
2013-03-05 23:46:00,38.7,24.8,29.72,NNW,333,4.0,6.0,57,0.00,,,0.00,Wunderground v.1.15,2013-03-06 04:46:00,
2013-03-05 23:52:00,38.4,26.9,29.73,South,172,3.0,8.0,63,0.00,,,0.00,Wunderground v.1.15,2013-03-06 04:52:00,
2013-03-05 23:57:00,37.7,27.7,29.73,SE,140,3.0,9.0,67,0.00,,,0.00,Wunderground v.1.15,2013-03-06 04:57:00,